Time,TemperatureF,DewpointF,PressureIn,WindDirection,WindDirectionDegrees,WindSpeedMPH,WindSpeedGustMPH,Humidity,HourlyPrecipIn,Conditions,Clouds,dailyrainin,SoftwareType,DateUTC
2013-03-14 00:22:00,48.0,15.0,30.12,North,0,0.0,1.0,26,0.00,,,-99.99,,2013-03-14 07:22:00,
2013-03-14 00:32:00,48.0,15.0,30.12,North,0,0.0,1.0,26,0.00,,,-99.99,,2013-03-14 07:32:00,
2013-03-14 01:21:00,47.0,16.0,30.11,North,0,0.0,1.0,28,0.00,,,-99.99,,2013-03-14 08:21:00,
2013-03-14 01:32:00,47.0,16.0,30.11,North,0,0.0,1.0,28,0.00,,,-99.99,,2013-03-14 08:32:00,
2013-03-14 02:22:00,47.0,16.0,30.11,WSW,240,1.0,2.0,29,0.00,,,-99.99,,2013-03-14 09:22:00,
2013-03-14 03:22:00,49.0,16.0,30.10,North,-999,0.0,0.0,26,0.00,,,-99.99,,2013-03-14 10:22:00,
2013-03-14 04:22:00,49.0,16.0,30.09,North,-999,0.0,0.0,27,0.00,,,-99.99,,2013-03-14 11:22:00,
2013-03-14 04:32:00,49.0,16.0,30.09,North,-999,0.0,0.0,27,0.00,,,-99.99,,2013-03-14 11:32:00,
2013-03-14 05:22:00,47.0,16.0,30.09,WSW,240,1.0,2.0,28,0.00,,,-99.99,,2013-03-14 12:22:00,
2013-03-14 05:33:00,47.0,16.0,30.09,WSW,240,1.0,2.0,28,0.00,,,-99.99,,2013-03-14 12:33:00,
2013-03-14 06:22:00,46.0,16.0,30.09,North,-999,0.0,0.0,29,0.00,,,-99.99,,2013-03-14 13:22:00,
2013-03-14 06:32:00,46.0,16.0,30.09,North,-999,0.0,0.0,29,0.00,,,-99.99,,2013-03-14 13:32:00,
2013-03-14 07:22:00,45.0,15.0,30.09,North,-999,0.0,0.0,30,0.00,,,-99.99,,2013-03-14 14:22:00,
2013-03-14 07:32:00,45.0,15.0,30.09,North,-999,0.0,0.0,30,0.00,,,-99.99,,2013-03-14 14:32:00,
2013-03-14 08:22:00,49.0,16.0,30.10,North,-999,0.0,0.0,27,0.00,,,-99.99,,2013-03-14 15:22:00,
2013-03-14 10:23:00,60.0,23.0,30.11,North,0,0.0,5.0,24,0.00,,,-99.99,,2013-03-14 17:23:00,
2013-03-14 10:32:00,60.0,23.0,30.11,North,0,0.0,5.0,24,0.00,,,-99.99,,2013-03-14 17:32:00,
2013-03-14 10:42:00,60.0,23.0,30.11,North,0,0.0,5.0,24,0.00,,,-99.99,,2013-03-14 17:42:00,
2013-03-14 11:22:00,64.0,23.0,30.11,North,0,0.0,4.0,21,0.00,,,-99.99,,2013-03-14 18:22:00,
2013-03-14 11:32:00,64.0,23.0,30.11,North,0,0.0,4.0,21,0.00,,,-99.99,,2013-03-14 18:32:00,
2013-03-14 11:42:00,64.0,23.0,30.11,North,0,0.0,4.0,21,0.00,,,-99.99,,2013-03-14 18:42:00,
2013-03-14 12:22:00,66.0,21.0,30.09,NE,40,8.0,11.0,18,0.00,,,-99.99,,2013-03-14 19:22:00,
2013-03-14 12:32:00,66.0,21.0,30.09,NE,40,8.0,11.0,18,0.00,,,-99.99,,2013-03-14 19:32:00,
2013-03-14 12:42:00,66.0,21.0,30.09,NE,40,8.0,11.0,18,0.00,,,-99.99,,2013-03-14 19:42:00,
2013-03-14 13:32:00,66.0,23.0,30.07,NNE,30,8.0,12.0,19,0.00,,,-99.99,,2013-03-14 20:32:00,
2013-03-14 13:42:00,66.0,23.0,30.07,NNE,30,8.0,12.0,19,0.00,,,-99.99,,2013-03-14 20:42:00,
2013-03-14 14:22:00,67.0,25.0,30.05,NNW,330,4.0,10.0,20,0.00,,,-99.99,,2013-03-14 21:22:00,
2013-03-14 14:32:00,67.0,25.0,30.05,NNW,330,4.0,10.0,20,0.00,,,-99.99,,2013-03-14 21:32:00,
2013-03-14 14:43:00,67.0,25.0,30.05,NNW,330,4.0,10.0,20,0.00,,,-99.99,,2013-03-14 21:43:00,
2013-03-14 15:23:00,68.0,23.0,30.03,NE,40,4.0,6.0,18,0.00,,,-99.99,,2013-03-14 22:23:00,
2013-03-14 15:33:00,68.0,23.0,30.03,NE,40,4.0,6.0,18,0.00,,,-99.99,,2013-03-14 22:33:00,
2013-03-14 15:42:00,68.0,23.0,30.03,NE,40,4.0,6.0,18,0.00,,,-99.99,,2013-03-14 22:42:00,
2013-03-14 16:22:00,68.0,29.0,30.02,West,270,1.0,4.0,23,0.00,,,-99.99,,2013-03-14 23:22:00,
2013-03-14 16:33:00,68.0,29.0,30.02,West,270,1.0,4.0,23,0.00,,,-99.99,,2013-03-14 23:33:00,
2013-03-14 16:42:00,68.0,29.0,30.02,West,270,1.0,4.0,23,0.00,,,-99.99,,2013-03-14 23:42:00,
2013-03-14 17:22:00,65.0,28.0,30.02,SSE,160,2.0,6.0,25,0.00,,,-99.99,,2013-03-15 00:22:00,
2013-03-14 17:32:00,65.0,28.0,30.02,SSE,160,2.0,6.0,25,0.00,,,-99.99,,2013-03-15 00:32:00,
2013-03-14 17:42:00,65.0,28.0,30.02,SSE,160,2.0,6.0,25,0.00,,,-99.99,,2013-03-15 00:42:00,
2013-03-14 18:22:00,62.0,24.0,30.02,NNE,30,5.0,9.0,23,0.00,,,-99.99,,2013-03-15 01:22:00,
2013-03-14 18:32:00,62.0,24.0,30.02,NNE,30,5.0,9.0,23,0.00,,,-99.99,,2013-03-15 01:32:00,
2013-03-14 18:42:00,62.0,24.0,30.02,NNE,30,5.0,9.0,23,0.00,,,-99.99,,2013-03-15 01:42:00,
2013-03-14 19:22:00,57.0,22.0,30.03,North,-999,0.0,0.0,25,0.00,,,-99.99,,2013-03-15 02:22:00,
2013-03-14 19:32:00,57.0,22.0,30.03,North,-999,0.0,0.0,25,0.00,,,-99.99,,2013-03-15 02:32:00,
2013-03-14 19:42:00,57.0,22.0,30.03,North,-999,0.0,0.0,25,0.00,,,-99.99,,2013-03-15 02:42:00,
2013-03-14 20:22:00,54.0,22.0,30.03,WSW,240,2.0,2.0,29,0.00,,,-99.99,,2013-03-15 03:22:00,
2013-03-14 20:32:00,54.0,22.0,30.03,WSW,240,2.0,2.0,29,0.00,,,-99.99,,2013-03-15 03:32:00,
2013-03-14 21:22:00,52.0,23.0,30.03,WSW,240,1.0,2.0,32,0.00,,,-99.99,,2013-03-15 04:22:00,
2013-03-14 21:32:00,52.0,23.0,30.03,WSW,240,1.0,2.0,32,0.00,,,-99.99,,2013-03-15 04:32:00,
2013-03-14 22:22:00,50.0,22.0,30.03,WSW,240,1.0,2.0,33,0.00,,,-99.99,,2013-03-15 05:22:00,
2013-03-14 23:22:00,49.0,22.0,30.04,WSW,240,1.0,2.0,34,0.00,,,-99.99,,2013-03-15 06:22:00,